ECHOSTAR 21

Last updated on Wed Sep 17 2025 00:02:49 GMT+0000 (Coordinated Universal Time)

1 42749U 17032A 25259.58572536 .00000047 00000+0 00000+0 0 9992 2 42749 1.9040 338.4760 0002386 202.5620 35.8474 1.00271937 30351
UTC large
Height (km)
Speed (km/s)
/
Latitude / Longitude
Inclination (degrees)
Orbital Period (minutes)
Azimuth
Elevation
Range (km)
Doppler Factor

Next 0 passes for location: London (51.5072 / 0.1276)

Sorry there are no passes over London.